Lid_Strength_Index
3 3 3 2 2 2 1 0 1 1 2 2 2 2 2 2 2 2 3 3 3 3 2 2 2 1 4 5 5 0 -2 -2 1 2 4 5 5 6 9 8 8 9 8 6 6 6 6
4 3 3 3 3 3 2 2 1 1 2 2 2 2 2 2 2 2 3 3 3 3 2 2 2 2 5 8 2 -0 1 2 3 4 4 4 5 5 7 8 8 7 7 7 6 6 5
4 4 4 4 3 3 2 3 2 1 2 2 2 2 2 2 3 3 3 3 3 3 3 2 2 3 5 7 2 2 1 4 3 4 4 3 4 5 6 7 6 6 9 7 8 7 8
4 4 4 4 4 4 3 3 3 2 2 2 2 2 3 3 3 3 3 4 3 3 2 2 2 5 7 1 2 2 3 4 4 4 3 3 3 5 6 6 7 8 10 12 8 8 7
5 4 4 4 4 4 4 4 4 3 2 2 2 2 3 3 4 4 4 4 3 3 2 2 5 5 7 0 2 1 2 3 4 4 4 2 4 6 6 9 11 11 14 12 10 7 7
5 5 4 4 4 4 4 4 4 4 3 2 2 3 3 3 4 4 4 3 3 3 4 3 4 7 4 5 2 2 3 3 4 4 5 6 7 9 9 11 15 13 12 13 12 9 8
4 5 4 4 4 4 4 4 4 4 4 3 3 3 3 3 4 4 5 6 6 7 6 7 8 7 5 3 2 3 3 3 4 5 9 7 10 12 10 9 9 10 11 11 11 9 9
4 4 4 4 4 4 4 4 4 4 3 3 3 3 3 3 4 3 6 7 5 5 8 4 4 5 3 3 6 4 3 6 6 9 7 9 12 8 8 7 8 9 11 11 10 9 8
3 4 4 4 4 4 4 4 4 4 3 3 3 3 3 4 4 5 7 6 3 4 8 6 4 5 4 3 6 5 4 5 8 9 9 11 9 7 8 8 9 10 11 11 11 10 11
3 3 3 4 4 4 4 4 4 3 3 3 3 3 4 4 6 6 6 3 3 4 12 9 7 5 5 5 6 4 4 5 7 9 9 10 7 8 9 9 9 12 8 9 10 12 14
2 3 3 3 3 5 4 4 4 4 3 3 3 3 4 4 5 6 4 4 4 4 19 8 7 3 5 6 6 6 4 6 8 9 8 10 9 9 10 9 8 10 8 9 9 12 13
2 2 3 3 3 3 4 4 3 3 3 3 3 3 4 3 4 5 3 4 3 13 19 10 7 8 8 7 6 6 6 6 5 8 8 9 7 8 8 7 7 7 9 10 11 12 16
3 2 2 3 3 3 3 3 2 2 2 3 3 3 2 2 6 3 2 5 14 17 8 10 9 8 8 8 7 7 8 9 10 12 12 10 9 8 7 9 8 8 12 17 18 18 18
3 3 2 3 3 2 3 3 3 2 2 2 2 3 2 2 3 2 3 9 17 12 11 7 8 8 10 8 8 8 9 11 9 10 12 13 14 9 7 9 10 10 12 16 20 20 17
3 3 2 2 3 3 3 3 3 2 1 2 2 2 3 2 2 2 7 14 14 12 8 9 9 10 10 9 9 9 10 11 9 9 12 14 13 8 7 7 8 10 13 10 15 16 18
3 3 2 3 3 3 3 3 2 2 2 1 2 4 3 2 2 3 9 13 11 8 7 8 11 10 12 10 10 11 11 9 9 8 7 10 14 9 8 7 8 9 9 13 14 19 20
2 2 2 3 3 3 3 3 3 2 2 1 3 6 3 0 2 7 12 11 9 6 7 9 10 10 10 10 10 11 10 9 8 8 7 9 11 12 9 11 11 11 11 11 12 14 18
3 2 2 2 3 3 3 3 3 2 2 2 4 9 2 0 9 9 11 9 8 7 6 8 8 9 9 9 10 11 10 9 7 7 10 9 11 15 12 8 8 10 10 11 17 16 15
3 3 2 2 2 3 3 3 3 2 2 4 6 6 2 2 12 13 9 9 8 8 8 8 9 8 8 10 11 9 9 7 7 7 9 9 12 16 14 11 9 11 10 10 11 14 15
3 3 3 2 2 3 3 4 3 3 2 3 6 10 7 5 7 11 11 10 10 7 8 7 8 8 9 9 8 10 10 8 7 7 7 8 11 13 16 13 11 12 11 11 12 16 15
4 3 3 3 3 2 3 3 3 3 2 3 6 9 7 11 10 9 10 10 11 11 7 7 9 9 10 11 10 11 10 9 8 7 8 9 12 12 11 10 10 11 11 11 12 12 14
4 3 3 3 3 3 3 3 3 2 1 4 7 8 7 9 8 9 9 11 10 9 8 9 10 9 8 10 10 11 10 10 10 9 10 9 12 13 14 10 11 13 11 12 11 11 11
4 4 4 3 3 3 3 3 3 2 1 5 4 4 6 8 9 10 10 10 10 7 7 7 8 8 10 8 7 8 7 7 8 9 10 10 12 14 16 13 13 16 13 11 11 11 11
4 4 4 3 3 3 2 3 2 2 2 3 4 4 8 11 9 10 9 9 8 8 8 7 6 8 7 5 6 7 8 7 8 8 8 11 12 15 17 17 20 12 9 9 11 10 10
4 4 3 3 3 3 2 2 2 2 2 3 2 4 7 11 9 9 8 8 7 7 8 8 6 5 5 7 11 12 14 13 11 9 9 9 13 16 18 18 13 11 10 10 11 12 9
4 3 3 3 3 2 2 1 2 1 1 4 2 2 5 9 10 7 9 7 9 9 9 8 6 5 5 9 13 15 16 13 14 12 10 11 12 15 17 19 20 12 9 8 9 14 8
3 3 3 3 2 2 2 1 1 1 2 3 3 3 5 8 7 6 9 9 7 8 10 9 8 8 7 14 15 16 15 11 15 15 16 17 17 18 21 20 16 10 8 8 15 14 8
3 3 2 2 2 2 2 2 1 2 2 2 3 2 5 7 6 5 5 7 6 7 11 9 9 9 11 13 14 15 17 13 14 12 13 14 16 19 16 19 17 7 9 11 10 8 8
3 2 2 2 2 2 2 1 1 2 1 1 4 2 2 6 6 4 5 4 4 4 7 8 8 8 8 11 12 14 15 16 15 16 10 14 12 13 13 13 9 8 8 7 7 7 7